, CA

(GMT )
Vandenberg AFB

Weather History for KVBG - April, 2013

Change the Weather History Date:

Friday, April 12, 2013

  Actual Average Record
Temperature  
Mean Temperature 52 °F -  
Max Temperature 57 °F 59 °F 82 °F (2008)
Min Temperature 46 °F 45 °F 41 °F (2009)
Degree Days  
Heating Degree Days 14    
Growing Degree Days 2 (Base 50)    
Moisture  
Dew Point 46 °F    
Average Humidity 85    
Maximum Humidity 100    
Minimum Humidity 72    
Precipitation  
Precipitation 0.00 in - - ()
Sea Level Pressure  
Sea Level Pressure 29.87 in    
Wind  
Wind Speed 10 mph (NW)    
Max Wind Speed 18 mph    
Max Gust Speed 29 mph    
Visibility 6 miles    
Events      
Averages and records for this station are not official NWS values.
T = Trace of Precipitation, MM = Missing Value Source: NWS Daily Summary

Daily Weather History Graph

Daily Weather History Graph

Search for Another Location

Airport or City:

Trip Planner

Search our weather history database for the weather conditions in past years. The results will help you decide how hot, cold, wet, or windy it might be!

Date:

Astronomy

Apr. 12, 2013 Rise Set
Actual Time 6:34 AM PDT 7:32 PM PDT
Civil Twilight 6:08 AM PDT 7:58 PM PDT
Nautical Twilight 5:37 AM PDT 8:29 PM PDT
Astronomical Twilight 5:06 AM PDT 9:00 PM PDT
Moon 7:52 AM PDT (4/12) 10:01 PM PDT (4/12)
Length of Visible Light 13h 50m
Length of Day
12h 58m
Waxing Crescent, 6% of the Moon is Illuminated
Apr 12
Waxing Crescent
Apr 18
First Quarter
Apr 25
Full
May 2
Last Quarter
May 9
New

Hourly Weather History & Observations

Time (PDT) Temp. Windchill Dew Point Humidity Pressure Visibility Wind Dir Wind Speed Gust Speed Precip Events Conditions
12:55 AM 48.0 °F - 46.0 °F 93% 29.85 in 5.0 mi NNW 12.7 mph - N/A   Overcast
1:09 AM 48.2 °F - 44.6 °F 87% 29.87 in 5.0 mi North 9.2 mph - N/A   Overcast
1:55 AM 48.9 °F - 46.0 °F 90% 29.85 in 5.0 mi NW 15.0 mph - N/A   Overcast
2:55 AM 48.9 °F - 46.0 °F 90% 29.84 in 6.0 mi NNW 17.3 mph - N/A   Overcast
3:42 AM 48.2 °F - 46.4 °F 93% 29.85 in 6.0 mi NNW 16.1 mph 23.0 mph N/A   Overcast
3:55 AM 48.9 °F - 46.0 °F 90% 29.83 in 6.0 mi NNW 18.4 mph 28.8 mph N/A   Overcast
4:55 AM 48.0 °F - 46.0 °F 93% 29.83 in 6.0 mi NNW 15.0 mph 23.0 mph N/A   Overcast
5:29 AM 46.4 °F 45.2 °F 44.6 °F 93% 29.86 in 5.0 mi NE 3.5 mph - N/A   Overcast
5:42 AM 46.4 °F 44.3 °F 44.6 °F 93% 29.86 in 5.0 mi East 4.6 mph - N/A   Overcast
5:55 AM 48.0 °F - 45.0 °F 89% 29.83 in 5.0 mi ESE 3.5 mph - N/A   Overcast
6:37 AM 46.4 °F - 46.4 °F 100% 29.86 in 2.0 mi Calm Calm - N/A   Overcast
6:55 AM 46.9 °F - 45.0 °F 93% 29.84 in 2.0 mi ESE 3.5 mph - N/A   Overcast
7:44 AM 48.2 °F - 46.4 °F 93% 29.87 in 3.0 mi Calm Calm - N/A   Mostly Cloudy
7:55 AM 48.9 °F - 46.9 °F 93% 29.86 in 3.0 mi Calm Calm - N/A   Mostly Cloudy
8:55 AM 48.9 °F - 46.0 °F 90% 29.87 in 3.0 mi NW 9.2 mph - N/A   Overcast
9:08 AM 50.0 °F - 46.4 °F 87% 29.89 in 1.5 mi NW 9.2 mph - N/A   Overcast
9:10 AM 50.0 °F - 46.4 °F 87% 29.89 in 1.5 mi NNW 9.2 mph - N/A   Overcast
9:55 AM 50.0 °F - 46.9 °F 89% 29.88 in 2.0 mi WNW 6.9 mph - N/A   Overcast
10:45 AM 51.8 °F - 46.4 °F 82% 29.90 in 2.5 mi WNW 5.8 mph - N/A   Overcast
10:55 AM 52.0 °F - 46.9 °F 83% 29.88 in 5.0 mi NNW 6.9 mph - N/A   Overcast
11:42 AM 53.6 °F - 46.4 °F 77% 29.90 in 7.0 mi NW 8.1 mph - N/A   Overcast
11:55 AM 53.1 °F - 46.9 °F 80% 29.88 in 7.0 mi WNW 8.1 mph - N/A   Mostly Cloudy
12:22 PM 55.4 °F - 48.2 °F 77% 29.90 in 7.0 mi West 6.9 mph - N/A   Overcast
12:55 PM 57.0 °F - 48.0 °F 72% 29.87 in 7.0 mi West 8.1 mph - N/A   Scattered Clouds
1:42 PM 55.4 °F - 46.4 °F 72% 29.88 in 7.0 mi West 10.4 mph - N/A   Mostly Cloudy
1:44 PM 55.4 °F - 48.2 °F 77% 29.88 in 7.0 mi West 8.1 mph - N/A   Mostly Cloudy
1:55 PM 55.0 °F - 48.0 °F 77% 29.86 in 7.0 mi WNW 9.2 mph - N/A   Mostly Cloudy
2:55 PM 55.9 °F - 46.9 °F 72% 29.85 in 7.0 mi NW 8.1 mph - N/A   Scattered Clouds
3:45 PM 55.4 °F - 46.4 °F 72% 29.86 in 9.0 mi NW 10.4 mph - N/A   Mostly Cloudy
3:47 PM 55.4 °F - 46.4 °F 72% 29.86 in 7.0 mi NW 12.7 mph - N/A   Mostly Cloudy
3:55 PM 55.0 °F - 46.9 °F 74% 29.84 in 7.0 mi NW 12.7 mph - N/A   Mostly Cloudy
4:55 PM 53.1 °F - 46.9 °F 80% 29.85 in 7.0 mi NW 11.5 mph - N/A   Unknown
5:02 PM - - - N/A% - - North - - N/A   Unknown
5:55 PM 52.0 °F - 46.9 °F 83% 29.84 in 8.0 mi NW 9.2 mph - N/A   Overcast
6:55 PM 51.1 °F - 46.0 °F 83% 29.86 in 8.0 mi NW 13.8 mph - N/A   Overcast
7:29 PM 50.0 °F - 46.4 °F 87% 29.89 in 7.0 mi NW 11.5 mph - N/A   Overcast
7:55 PM 50.0 °F - 46.9 °F 89% 29.87 in 8.0 mi NW 9.2 mph - N/A   Overcast
8:55 PM 48.9 °F - 46.0 °F 90% 29.88 in 6.0 mi NW 10.4 mph - N/A   Overcast
9:55 PM 50.0 °F - 46.9 °F 89% 29.89 in 6.0 mi NNW 9.2 mph - N/A   Overcast
10:55 PM 48.9 °F - 46.9 °F 93% 29.89 in 6.0 mi NNW 9.2 mph - N/A   Overcast
11:55 PM 48.9 °F - 46.9 °F 93% 29.90 in 7.0 mi NW 11.5 mph - N/A   Overcast